Wind_Speed
12 13 14 12 7 11 17 18 16 15 19 21 15 9 10 9 7 5 7 10 9 6 5 5 6 6 10 10 10 9 8 9 10 10 16 16 13 12 15 17 17 17 15 15 16 16 16 20 24 26 29 31 32 32 32 34 35 35 35 36 37 37 37 39 41 42 42 41 42 42 41 41 42 41 40 40 39 38 38 39 40 39 38 38 39 39 40
13 12 10 10 8 3 7 14 18 15 15 21 19 11 9 10 8 7 8 12 10 7 6 5 3 8 11 9 10 10 9 12 12 10 12 13 12 13 14 14 15 15 15 15 15 15 15 17 22 25 27 30 31 31 32 34 35 35 35 36 37 37 37 38 40 41 41 40 40 40 40 41 43 42 41 40 39 39 39 40 40 40 39 38 38 39 40
7 8 9 12 11 6 1 5 14 16 14 18 20 14 9 9 8 9 10 10 8 6 6 5 7 11 11 9 10 10 10 11 12 11 11 11 11 12 13 13 12 13 13 13 13 14 14 17 22 24 25 28 30 30 31 32 34 35 34 35 37 37 37 37 39 39 40 40 39 40 41 41 42 43 41 40 40 39 39 39 39 39 40 39 38 38 39
5 4 6 13 14 7 4 4 6 9 8 12 17 15 9 7 9 8 8 7 5 5 8 9 10 12 12 11 10 10 9 9 10 10 10 9 10 11 12 12 11 11 12 13 13 14 14 17 22 23 23 26 28 29 30 30 32 34 34 34 36 38 37 37 39 39 39 40 39 40 41 41 41 42 42 40 39 39 39 39 39 39 40 40 39 38 38
6 5 5 12 11 6 4 6 3 2 3 5 14 15 10 7 9 8 5 5 7 7 10 10 12 13 12 10 9 9 10 11 11 9 8 9 8 8 9 10 9 10 10 10 11 12 14 17 21 23 24 24 26 29 31 30 31 33 34 33 33 37 38 38 39 40 39 39 39 39 41 41 41 40 40 40 39 39 40 39 39 40 40 40 40 38 37
7 9 9 8 5 3 4 2 2 5 5 6 9 17 15 9 6 7 7 5 4 7 11 11 12 12 10 8 8 8 9 9 9 9 8 9 8 7 7 7 6 8 8 7 9 11 14 17 19 20 22 22 25 28 30 30 31 32 33 32 32 35 38 38 39 40 40 39 39 39 39 40 39 38 39 40 40 39 39 39 39 39 40 39 40 40 39
6 8 7 3 2 5 4 3 7 6 4 5 4 8 9 6 3 4 10 9 7 8 10 11 12 12 12 10 10 11 10 9 10 11 9 8 8 8 7 8 6 6 7 6 6 7 9 13 15 17 18 19 21 24 27 29 30 30 31 31 30 33 37 38 38 40 41 40 39 39 38 38 38 38 38 39 39 39 38 39 40 39 39 39 40 41 41
4 4 2 3 3 6 3 6 9 8 4 2 9 15 9 10 14 8 6 14 14 11 10 10 12 14 14 13 13 15 15 13 12 12 12 12 13 11 9 9 8 8 9 9 7 7 7 4 9 16 19 19 18 20 22 25 25 27 30 30 30 32 35 37 38 39 40 40 39 38 37 36 36 37 38 38 39 39 38 37 38 38 38 39 40 40 41
3 4 4 3 2 5 5 8 11 12 10 3 5 11 12 17 22 20 7 11 18 15 11 10 11 14 15 13 11 14 15 14 13 14 14 15 14 13 11 11 11 12 12 12 10 10 10 9 4 3 11 17 20 19 20 21 21 22 25 27 29 30 33 37 37 38 39 39 38 38 37 36 36 37 38 38 38 38 37 36 35 36 38 39 39 39 39
4 4 4 2 2 2 7 13 16 16 15 8 7 13 13 17 21 22 16 7 11 15 13 10 10 13 15 10 7 10 13 13 13 14 14 13 12 11 11 10 12 15 13 12 12 11 10 10 10 8 5 6 13 18 20 22 21 21 21 24 27 28 30 35 37 36 38 38 38 38 37 37 37 36 36 36 36 36 36 36 35 35 36 36 36 36 37
5 4 2 2 1 2 10 18 18 18 18 11 6 13 11 14 18 18 18 16 13 11 11 11 10 11 11 7 5 8 11 11 12 13 12 12 11 11 12 12 12 14 13 12 13 13 13 13 13 12 11 8 5 11 17 22 23 22 23 24 25 25 27 31 35 36 36 38 38 37 38 38 36 35 35 34 34 34 34 34 34 33 31 31 32 33 34
5 4 2 2 0 3 14 20 18 18 19 9 7 9 5 11 16 15 17 18 18 15 12 12 11 9 8 6 5 8 10 11 12 13 12 11 10 10 14 16 17 18 17 15 14 15 16 17 16 16 16 15 10 6 9 15 20 24 27 28 26 24 24 27 33 36 36 37 38 37 37 36 34 33 33 32 31 31 32 32 32 31 30 29 29 31 32
5 4 1 1 1 4 14 19 18 18 14 4 9 6 2 8 11 12 15 16 16 15 13 11 10 8 8 8 9 11 12 12 13 13 12 12 13 12 14 18 20 19 18 17 16 17 19 18 17 17 18 17 15 12 8 7 10 14 22 28 29 26 25 26 30 34 35 36 37 36 35 34 33 31 31 31 30 30 30 29 29 29 29 29 28 28 29
4 2 0 1 1 5 14 17 16 15 8 5 5 1 3 6 10 12 14 14 13 13 13 12 10 10 11 13 13 13 13 12 11 11 10 10 12 14 16 19 20 18 16 16 17 17 17 17 17 18 17 16 16 15 10 7 6 6 9 22 31 30 27 27 29 32 34 34 34 34 33 32 31 29 29 29 29 29 28 28 28 28 29 29 28 27 26
3 1 2 2 1 7 16 16 13 12 8 4 1 2 3 9 12 11 12 12 12 11 11 12 11 11 13 14 14 13 12 12 12 11 11 10 10 12 15 17 18 17 14 13 14 14 15 14 14 15 15 16 16 13 10 10 7 6 6 14 29 32 30 30 30 32 33 33 32 32 31 31 30 28 27 28 27 27 28 27 26 27 27 27 27 26 24
3 2 2 2 1 5 11 10 8 7 5 5 2 4 6 8 10 9 9 10 12 11 10 10 10 11 11 12 12 12 11 12 12 12 12 11 10 11 13 15 17 17 14 11 10 11 12 13 13 14 14 13 13 11 11 13 10 7 6 5 20 29 30 30 30 31 32 32 32 31 29 29 29 27 26 27 26 27 28 27 26 25 25 26 25 24 23
2 1 3 2 2 5 7 7 5 7 6 8 8 8 7 7 8 8 8 9 12 12 10 9 9 9 10 10 11 10 9 10 10 10 10 11 12 11 13 14 17 16 13 11 11 11 13 14 14 17 16 13 13 14 13 13 11 8 8 2 11 20 24 25 27 29 30 30 29 29 28 28 28 27 26 26 25 25 26 26 25 24 22 23 23 22 22
3 2 3 1 4 7 7 5 4 7 8 9 9 8 6 7 7 7 8 9 10 11 10 9 9 9 10 10 9 9 8 8 9 8 9 10 12 12 11 12 15 15 13 12 11 11 13 14 14 16 16 14 14 15 15 14 12 9 7 3 6 13 17 19 22 24 26 26 26 26 26 27 27 27 26 25 24 24 25 25 24 23 21 21 21 21 21
3 2 3 7 7 5 5 5 3 4 6 8 7 6 5 6 8 8 9 10 10 10 10 10 9 9 10 10 8 7 7 7 7 7 7 8 10 11 10 9 11 13 11 9 9 9 10 13 14 13 13 14 16 16 15 15 12 8 6 4 7 12 14 16 19 22 23 23 23 23 23 24 25 25 24 24 24 24 24 24 23 21 20 20 20 20 20
3 2 5 8 8 5 5 4 4 5 6 7 7 6 6 7 9 10 10 10 10 10 10 11 10 10 10 9 8 7 6 5 6 6 5 6 8 12 13 11 10 10 9 8 7 7 8 10 12 13 12 14 16 16 15 14 12 8 5 4 6 11 15 16 18 21 22 22 22 22 20 19 19 21 23 24 24 24 23 23 22 21 21 20 19 18 19
3 2 4 9 9 7 5 7 9 7 6 7 8 8 8 8 9 10 11 10 10 10 11 11 11 10 9 8 8 7 7 4 5 5 5 6 8 11 12 11 8 7 8 8 7 7 7 8 9 10 12 13 16 17 16 14 13 9 3 2 3 7 11 14 16 18 20 21 21 20 17 14 13 13 16 19 20 19 19 20 21 21 21 19 16 14 13
4 4 7 10 8 6 7 10 12 9 7 7 7 7 8 7 8 9 10 10 9 10 10 10 10 9 8 8 7 7 6 4 3 3 5 7 9 9 11 11 7 6 6 7 6 6 7 7 8 9 10 11 13 16 16 15 13 9 4 2 3 4 6 8 12 15 16 16 18 19 19 19 17 15 12 12 14 14 12 14 18 19 18 16 14 13 13
7 8 9 8 4 4 8 12 13 10 7 6 6 5 5 6 6 5 6 8 8 8 8 8 8 7 7 8 7 6 6 7 7 5 4 6 8 9 10 9 5 5 5 5 6 7 7 7 8 8 9 9 10 14 16 15 12 8 5 8 9 8 7 6 10 14 14 13 16 20 22 22 24 25 24 22 20 19 16 14 14 14 15 15 14 13 13
10 10 10 9 7 6 7 12 14 11 7 7 6 5 4 4 4 3 4 5 6 6 7 8 8 7 6 7 7 7 6 8 10 7 5 7 8 7 8 7 4 5 6 6 7 7 7 8 8 8 8 9 10 12 14 14 11 7 6 11 13 13 12 11 11 12 12 14 20 23 23 24 27 30 31 29 26 25 24 21 19 18 17 17 16 14 12
11 11 11 12 11 8 7 9 12 11 8 7 7 5 3 3 3 3 4 4 5 5 5 6 8 8 6 5 6 6 6 8 11 10 8 9 8 2 4 6 6 6 7 7 6 7 8 9 8 8 8 9 10 10 11 11 11 9 8 11 12 13 14 15 15 15 15 18 23 25 23 23 25 27 29 28 25 26 27 27 25 23 20 17 17 17 16
13 13 13 15 15 12 8 8 9 9 8 8 7 5 4 3 4 4 5 5 5 6 6 6 7 7 7 6 6 6 5 8 12 12 10 9 6 1 1 2 3 4 5 7 7 8 8 7 6 6 6 6 8 9 8 8 9 10 11 13 13 14 16 18 20 19 18 19 23 24 24 23 23 23 25 27 27 26 25 25 25 25 24 21 19 19 19
14 13 13 15 16 12 8 7 9 8 7 9 8 7 7 6 4 4 5 6 6 8 9 10 10 9 6 6 8 8 8 8 10 10 8 8 7 4 1 2 3 3 5 8 7 7 7 6 5 6 6 7 8 9 8 6 7 9 12 14 17 19 20 21 22 21 20 20 22 24 24 23 23 23 24 26 27 25 23 22 22 22 23 22 19 18 19
14 12 11 13 15 13 9 9 10 9 9 10 9 8 8 8 6 5 5 5 6 6 8 11 12 8 3 4 6 7 7 7 7 6 8 11 11 7 4 5 5 4 5 7 7 8 10 10 10 11 11 9 7 9 10 9 8 11 14 17 19 21 22 22 22 22 22 21 22 24 24 23 23 24 24 23 23 23 23 24 23 22 21 20 18 16 17
14 13 12 14 16 14 10 10 12 11 11 11 11 10 9 8 6 5 5 5 5 4 5 8 10 5 2 3 4 4 4 5 5 6 9 12 13 10 7 7 7 9 11 11 10 10 12 13 15 17 18 13 6 6 11 13 13 15 18 19 20 21 21 21 21 21 22 22 22 23 25 25 25 24 23 22 23 24 24 24 23 22 19 17 16 16 16
12 12 13 14 14 12 12 12 13 13 12 11 11 11 10 8 7 6 5 5 5 4 5 7 7 2 2 2 2 3 3 4 5 7 10 12 13 12 9 7 9 12 13 14 14 12 12 14 17 19 21 18 12 8 11 16 18 19 19 19 18 17 18 19 19 19 20 21 21 22 22 23 24 24 23 23 23 23 24 24 23 22 18 16 16 16 16
14 13 14 13 12 12 13 12 12 12 12 11 11 12 11 10 9 7 5 6 6 5 6 8 5 2 4 4 5 6 4 4 6 9 11 12 14 15 13 10 8 8 10 13 16 16 15 17 19 20 20 20 17 12 8 11 16 18 19 19 17 15 15 16 17 16 16 16 18 20 21 21 22 22 22 20 19 20 22 23 22 19 16 14 13 13 12
11 12 13 12 11 11 11 11 11 12 12 12 12 12 11 10 9 8 6 7 6 5 7 8 4 3 6 7 8 8 7 7 9 12 13 13 15 17 17 16 12 10 12 17 18 18 18 19 20 20 20 20 21 18 10 8 13 17 18 19 18 16 15 15 16 17 17 18 18 19 19 18 19 19 18 18 19 19 20 22 22 19 14 11 10 9 9
7 8 11 11 10 11 11 11 11 11 12 12 11 10 9 8 8 7 7 7 6 6 7 6 2 6 7 8 8 8 7 7 10 12 12 14 16 18 19 19 16 14 14 18 21 22 22 22 21 21 22 22 23 24 19 14 16 19 20 21 22 21 20 19 20 23 25 25 24 24 23 22 21 20 18 17 17 16 17 19 20 18 14 11 11 10 9
13 7 3 6 8 9 10 11 11 10 10 10 10 9 7 6 6 7 7 8 8 7 6 4 6 7 9 10 10 8 5 4 7 9 10 13 17 18 20 21 18 16 17 22 25 25 25 23 22 23 25 25 24 25 24 22 23 25 27 28 28 27 26 27 27 27 27 27 27 28 29 27 26 25 25 24 22 20 18 16 14 12 12 13 13 11 9
18 16 12 7 4 3 4 6 6 6 7 7 7 6 7 6 7 8 8 9 9 9 7 7 9 11 13 13 12 9 6 7 10 12 13 15 18 20 23 24 21 18 20 25 27 25 24 25 25 25 27 28 27 25 24 24 27 28 29 30 30 28 28 29 29 28 27 26 28 29 29 28 27 27 27 27 26 26 25 25 23 19 15 13 10 8 7
21 18 16 14 14 14 11 7 5 4 4 6 6 6 7 7 8 9 11 13 14 13 9 8 10 12 13 13 12 10 8 11 16 17 16 16 19 22 25 26 23 19 19 23 26 25 24 26 27 28 29 31 30 28 25 25 26 27 28 29 29 28 28 28 28 28 28 27 28 28 28 28 28 28 28 27 26 26 25 24 24 24 22 20 17 15 13
23 20 15 13 15 16 14 12 11 9 5 2 2 4 5 6 10 14 13 11 10 9 11 12 12 13 15 15 15 15 14 16 20 20 18 19 23 25 25 24 22 19 16 17 21 25 25 26 28 30 30 31 31 31 29 28 28 28 28 28 27 27 27 28 27 27 28 28 27 27 27 27 27 27 27 27 26 26 25 23 22 22 22 21 21 20 19
23 23 20 18 18 17 17 19 20 18 14 11 7 4 5 5 4 9 9 8 6 10 16 16 15 18 21 20 17 17 18 19 22 23 22 22 25 26 23 20 19 17 14 14 20 25 26 28 30 31 31 30 30 31 31 32 32 32 30 29 28 28 28 28 27 26 26 27 27 27 27 26 25 24 25 25 24 24 24 23 22 22 21 21 21 21 21
19 21 22 22 22 21 21 24 26 24 20 16 12 10 12 15 13 9 9 11 12 15 20 22 20 20 21 19 16 15 17 19 22 24 23 23 24 25 23 22 22 20 17 19 24 27 27 29 32 33 31 29 29 30 31 32 34 33 31 30 30 30 28 28 28 27 26 27 27 27 26 25 24 23 23 23 23 23 24 23 22 21 21 21 20 20 20
13 15 18 19 19 20 20 20 22 26 27 25 21 18 17 21 24 24 20 13 12 15 20 22 21 18 17 17 17 16 18 20 22 22 21 21 22 22 20 22 25 26 25 26 28 27 28 31 33 32 31 30 29 30 31 33 34 33 32 31 31 30 29 29 29 28 28 27 27 26 24 23 23 23 23 23 23 23 22 23 23 22 22 22 22 21 21
12 15 18 18 18 19 20 19 21 26 30 30 28 26 27 29 31 28 23 22 25 26 23 24 24 21 19 22 24 23 23 25 25 23 21 19 18 15 13 16 22 26 27 29 30 30 30 32 32 31 30 31 30 30 31 33 33 33 32 31 31 31 30 29 28 28 27 27 26 24 23 21 21 22 22 21 22 22 21 22 22 22 22 23 23 23 23
14 16 16 16 16 19 21 22 22 24 27 30 31 31 32 34 35 31 27 28 29 27 25 28 30 27 24 26 28 27 26 27 26 25 24 22 19 15 12 15 22 26 27 29 31 32 32 32 32 30 30 30 30 31 32 33 32 31 31 31 31 31 29 28 27 27 27 27 26 25 23 23 22 22 21 20 20 20 19 19 20 20 20 21 22 25 26
15 15 13 13 15 18 20 22 22 22 24 28 32 32 31 32 34 33 32 31 29 26 26 29 31 28 26 26 25 24 24 24 23 24 24 25 26 24 21 21 25 27 28 30 32 32 31 31 30 30 30 30 30 32 33 32 31 30 30 29 29 29 28 27 25 24 24 25 25 24 24 24 24 23 23 22 22 22 21 20 19 19 18 19 22 26 28
17 16 14 14 16 18 19 20 21 20 21 25 29 31 31 32 32 33 32 30 28 27 28 30 30 29 28 27 24 21 20 19 19 18 18 19 22 26 26 26 26 28 29 31 32 32 31 30 29 29 29 30 30 31 32 31 30 29 29 28 28 27 27 26 25 24 23 23 23 23 23 24 24 24 25 26 26 26 26 26 25 26 26 26 26 28 29
17 17 15 16 17 17 18 18 18 17 19 23 27 29 29 29 30 32 34 32 29 28 29 31 31 30 29 28 26 24 23 22 21 19 15 12 13 18 24 26 27 29 31 32 31 31 30 29 28 28 29 29 29 30 30 29 28 28 27 27 27 26 26 25 25 25 24 23 23 22 22 22 22 22 22 23 24 26 27 27 27 29 31 31 30 30 30
15 16 17 17 17 17 17 17 18 19 21 21 21 23 25 26 26 27 29 29 27 27 29 31 31 30 28 26 25 24 24 25 26 26 23 20 17 20 24 26 27 29 31 32 31 30 29 27 27 27 27 27 27 28 28 27 26 26 26 25 25 25 25 25 25 25 25 25 24 23 22 22 21 19 18 19 20 21 23 24 25 26 27 28 29 30 31
13 14 15 16 17 16 15 15 15 17 17 15 13 15 20 23 24 25 26 26 26 26 27 28 29 28 27 25 23 21 21 21 21 24 26 25 24 24 25 25 26 28 31 31 30 30 28 27 27 26 25 25 26 26 25 25 25 24 24 23 23 23 23 24 24 24 25 25 24 23 22 21 21 20 19 19 19 19 19 20 21 22 23 24 25 26 28
13 13 13 15 17 16 15 13 12 12 11 11 12 14 18 21 22 23 25 25 26 26 26 26 26 25 24 23 21 21 20 18 16 17 20 23 23 23 25 25 25 26 28 29 28 27 27 26 26 26 25 25 25 24 24 24 24 23 22 22 22 21 21 21 21 21 22 22 21 20 19 19 19 19 19 20 20 20 20 20 20 21 21 22 22 22 23
13 13 13 13 14 15 14 13 11 10 9 10 11 11 13 15 17 18 20 21 22 22 23 24 23 23 22 21 20 20 21 20 18 17 19 21 22 22 22 22 22 23 25 25 25 25 25 25 25 25 25 26 25 24 23 23 23 23 23 23 23 23 23 22 21 21 21 21 21 21 20 19 19 18 18 18 19 19 21 22 22 22 21 21 22 22 22
13 12 11 11 12 13 12 11 10 10 10 12 12 11 10 10 10 11 14 16 17 18 18 19 20 20 21 21 21 20 19 19 19 18 19 20 20 21 21 21 20 21 22 23 23 23 24 24 23 23 24 25 25 24 24 23 23 24 24 24 23 24 24 23 23 23 23 24 24 24 22 21 20 19 17 17 18 19 20 21 21 20 20 21 22 23 23
13 12 12 12 13 14 14 13 12 12 11 11 13 13 13 12 10 10 12 14 15 15 15 15 16 16 17 19 19 19 18 17 17 17 17 18 18 19 20 20 20 20 21 22 22 22 22 22 21 21 22 22 23 23 24 23 23 23 23 24 24 24 24 23 23 23 23 23 24 24 24 24 23 23 21 19 18 19 20 20 19 19 20 21 22 23 23
14 14 13 13 13 14 15 15 15 16 15 13 12 12 13 13 13 12 12 13 13 14 14 14 15 16 17 17 16 16 16 16 15 15 15 16 16 16 17 19 20 20 20 21 21 21 21 20 20 20 20 20 20 21 22 22 22 22 21 22 22 23 23 23 23 23 23 23 23 24 24 24 24 25 25 24 22 20 21 21 21 20 20 20 20 20 20
Wind_Direction
289 277 282 287 246 182 174 189 210 203 195 209 214 185 172 156 143 208 209 153 156 212 213 215 219 158 121 119 112 100 98 89 90 136 154 150 145 148 154 158 161 163 163 167 172 175 177 180 184 190 193 194 194 193 193 194 196 197 196 197 199 202 203 204 206 208 208 208 208 208 207 207 207 208 208 208 208 208 208 208 210 211 211 213 214 214 215
295 291 287 291 293 250 169 186 208 218 199 199 211 208 172 158 163 193 178 158 171 193 189 205 184 127 120 117 110 100 97 94 88 101 123 125 132 144 149 154 161 163 165 169 172 174 176 182 188 192 193 192 192 192 192 194 196 198 197 197 198 200 202 204 205 207 208 208 208 207 207 207 207 208 208 208 208 208 209 210 211 212 213 214 215 215 216
293 309 318 302 289 279 275 188 202 219 214 195 202 215 194 157 172 191 166 156 181 180 147 126 97 99 95 84 88 91 95 103 103 105 109 108 118 132 141 150 156 159 164 168 171 176 179 185 191 191 189 188 189 191 193 195 197 198 198 198 198 200 202 203 204 205 206 207 207 206 207 207 208 208 207 207 207 208 209 210 211 212 213 214 215 216 216
310 325 311 290 291 292 290 274 214 214 226 200 193 205 210 170 172 182 149 144 184 153 115 101 87 85 80 72 72 73 73 78 90 107 119 119 122 130 138 145 150 154 160 165 170 179 183 187 191 191 185 183 188 192 194 196 197 199 201 200 199 200 201 201 202 203 204 205 206 206 207 207 208 208 208 207 207 208 208 209 210 211 213 214 215 215 216
321 344 296 276 300 325 270 253 219 126 332 249 192 191 213 191 166 171 161 180 198 149 109 97 86 79 76 76 74 74 74 65 62 77 97 105 110 119 127 136 145 149 151 157 166 175 182 186 190 191 186 182 186 192 195 197 197 200 203 204 200 200 201 201 201 202 202 203 205 206 207 208 209 208 208 208 208 208 208 209 209 211 213 214 215 215 215
309 329 311 285 305 298 237 255 63 75 11 301 199 183 203 210 162 157 162 173 180 137 117 111 103 92 87 86 82 83 86 77 65 63 73 92 103 104 104 114 137 147 144 142 148 157 170 180 184 188 189 188 189 192 195 197 198 200 204 205 203 201 201 201 200 200 201 202 204 205 207 207 208 208 208 208 209 209 209 209 210 211 213 214 215 216 216
293 321 321 304 278 253 238 50 38 40 9 332 47 123 181 235 316 178 160 130 88 93 108 111 107 100 93 80 65 60 63 70 72 59 50 74 96 94 82 73 77 98 104 104 111 125 153 178 188 189 192 193 193 194 195 197 200 202 203 206 205 202 201 201 200 199 200 201 202 204 206 206 206 207 208 209 210 210 210 211 211 212 213 215 216 217 218
302 330 294 222 248 282 321 49 30 6 334 324 53 60 47 356 347 330 170 133 104 84 86 97 102 100 89 71 54 49 50 55 65 62 55 61 68 67 64 59 58 68 75 76 78 79 82 124 192 200 201 199 196 198 200 201 203 204 204 206 206 202 200 201 201 198 198 199 200 203 204 204 205 207 208 210 210 210 211 213 214 214 215 216 218 219 219
342 332 286 255 301 325 2 21 1 342 328 312 94 71 29 6 1 356 4 123 117 104 93 92 98 93 80 65 48 45 47 47 52 58 62 63 63 61 53 47 43 46 54 59 59 55 48 42 47 200 210 206 202 202 204 207 210 209 207 208 208 203 200 201 201 199 198 198 199 201 202 202 205 207 208 210 211 211 212 213 215 216 217 219 220 220 221
337 326 300 287 295 350 3 349 337 328 322 327 88 83 34 0 357 1 2 35 99 110 112 105 96 84 73 64 48 42 45 45 46 52 55 57 62 61 53 49 39 28 31 45 48 41 28 15 10 7 342 242 217 210 208 209 212 215 216 214 211 206 201 200 201 200 199 198 198 199 200 202 205 206 208 210 211 211 212 214 216 218 220 221 222 223 223
307 315 323 311 259 28 353 339 337 331 317 314 72 78 38 347 341 359 12 14 26 66 95 94 87 83 77 73 54 43 44 42 44 50 49 45 47 48 49 50 35 19 25 38 42 45 39 20 7 3 360 346 284 230 217 210 209 213 220 221 217 211 205 201 200 200 199 199 199 199 201 203 205 206 207 209 210 212 213 216 219 221 222 224 225 226 226
292 290 310 334 55 28 347 337 336 325 310 312 63 72 22 329 334 359 21 23 21 32 55 70 72 77 84 85 63 49 48 45 44 46 44 37 32 35 43 42 28 21 26 28 32 44 41 24 13 10 6 1 350 309 245 220 212 213 218 220 220 218 212 204 200 200 199 199 199 200 202 203 204 205 206 207 208 210 213 216 219 221 223 225 227 228 229
305 306 306 328 86 19 348 339 335 324 313 4 66 78 262 311 340 6 22 28 28 26 37 56 61 60 64 66 59 51 48 49 47 41 38 31 21 25 43 43 27 17 17 20 31 42 35 19 9 3 359 357 351 340 315 263 239 230 224 219 217 216 214 207 201 199 199 199 200 201 202 202 203 204 204 204 205 207 210 213 217 220 223 225 228 230 230
297 309 4 328 3 356 344 339 342 349 7 62 63 80 263 337 7 16 17 26 32 28 35 48 51 51 50 48 49 45 40 47 49 41 37 29 15 23 41 41 25 12 11 20 32 36 26 14 3 355 353 350 339 333 334 326 314 309 257 223 213 211 210 206 201 198 198 198 199 199 200 200 199 199 201 202 203 205 207 210 214 218 221 225 229 231 233
311 339 12 36 69 332 339 349 3 18 46 83 326 327 15 16 21 17 11 21 27 28 40 45 41 45 46 42 43 38 33 38 38 32 33 25 13 26 40 34 19 8 4 14 29 28 17 10 3 354 349 341 331 332 355 3 355 352 318 231 211 206 204 203 200 198 196 196 196 196 196 197 196 195 197 199 201 203 206 208 212 216 219 223 227 231 233
18 45 7 33 197 312 343 12 20 16 63 96 39 22 30 21 20 17 8 12 16 21 39 47 42 42 42 42 41 33 30 34 30 25 26 19 12 28 37 26 13 4 355 2 27 32 22 18 13 2 354 349 347 356 8 8 8 19 8 252 211 203 199 199 198 195 194 193 193 193 193 192 191 192 194 196 199 203 206 208 211 214 217 220 223 228 231
349 201 224 236 280 325 1 34 11 348 34 69 54 39 31 16 16 19 8 4 9 12 22 37 43 41 41 46 44 31 28 34 30 25 24 14 8 20 28 20 9 360 352 360 21 31 26 23 19 11 8 10 11 6 2 2 6 14 17 350 210 202 197 195 193 190 189 188 188 189 189 187 188 191 193 195 198 201 204 206 209 212 214 215 218 222 225
325 270 235 310 358 357 2 16 4 352 14 38 45 47 36 8 6 15 9 3 6 9 14 24 32 35 37 41 38 28 25 28 27 26 22 10 2 5 15 14 4 357 355 4 22 31 22 13 10 9 9 12 11 5 4 7 5 3 15 54 179 190 190 189 186 182 180 180 181 183 184 186 189 193 194 195 197 200 202 204 208 210 211 211 214 217 218
358 342 344 349 352 350 339 334 349 17 26 29 33 45 45 16 5 9 9 4 2 7 14 18 21 32 37 34 28 24 21 23 26 22 14 4 351 343 348 357 354 350 352 4 25 31 17 8 8 10 12 14 10 7 8 10 9 7 16 60 140 162 168 171 173 173 171 172 174 177 180 186 191 194 195 197 198 199 201 203 205 207 208 207 207 208 210
354 324 325 329 318 291 288 323 4 33 40 30 18 22 38 31 13 3 4 7 4 3 8 12 15 23 28 25 20 11 6 19 27 10 360 359 338 325 327 338 344 347 350 360 21 25 15 16 18 16 19 20 13 8 8 8 10 16 17 39 102 140 152 154 157 164 168 168 171 176 179 183 188 192 195 198 198 199 201 203 202 202 203 204 204 204 206
315 300 351 357 342 315 326 13 20 17 17 17 11 11 20 31 24 5 357 1 4 1 0 4 10 14 13 12 10 354 345 10 28 360 338 331 318 315 323 330 338 359 5 7 21 24 17 23 24 14 15 18 11 8 8 4 5 16 24 19 72 127 148 152 156 161 165 169 173 173 167 157 155 169 185 192 193 193 199 203 204 204 203 202 202 197 190
312 325 3 14 359 320 338 5 1 353 358 9 12 7 3 16 31 15 354 349 355 359 355 353 2 8 358 353 353 340 333 350 3 335 319 316 310 308 317 325 340 13 15 9 15 15 12 25 29 20 16 14 6 4 7 4 2 10 40 92 93 118 138 160 172 170 167 171 170 160 149 140 129 122 127 148 161 162 171 187 197 202 200 191 183 177 158
302 311 335 356 345 312 332 338 330 329 346 355 357 358 353 3 25 19 348 337 342 349 345 339 347 355 345 338 341 340 339 340 330 318 313 312 308 307 308 309 325 356 358 9 19 11 13 27 31 25 18 7 357 358 4 7 5 9 61 90 89 90 94 130 169 174 173 168 153 143 140 138 130 117 103 100 106 109 113 129 147 157 158 148 141 149 146
303 307 319 324 314 310 321 315 309 312 322 322 319 321 324 337 346 337 324 322 322 328 330 324 324 333 341 342 341 343 342 327 317 319 318 298 291 308 328 334 351 6 9 24 24 17 32 43 40 36 24 5 356 358 1 8 14 25 77 94 90 88 91 107 137 155 157 148 138 134 132 131 128 122 110 99 94 93 96 102 108 112 117 118 114 114 118
303 302 307 306 299 296 299 296 296 300 302 296 294 296 300 317 330 330 327 313 298 299 306 305 309 323 336 335 327 332 336 319 313 322 322 303 289 304 13 15 27 30 31 36 27 28 50 54 43 41 33 12 7 10 8 13 26 44 78 94 91 87 90 97 107 113 119 128 132 133 131 127 125 124 119 113 106 99 96 97 98 99 101 105 109 110 108
298 298 302 299 292 288 285 278 277 284 292 295 295 294 298 321 348 347 333 320 313 310 301 291 296 310 319 319 318 322 324 317 317 319 314 305 302 306 94 64 58 45 47 56 49 46 59 61 45 41 34 14 11 12 7 15 38 58 79 88 85 85 88 92 95 96 103 119 130 132 130 127 125 123 121 121 119 114 108 102 97 95 95 97 103 109 110
288 288 292 290 284 278 267 262 270 280 292 295 297 300 302 304 311 308 295 292 298 300 298 297 296 294 305 334 339 332 326 323 321 320 322 329 330 321 306 119 115 86 65 69 67 60 56 46 31 29 18 2 7 12 6 7 39 62 79 85 85 87 91 92 91 90 93 106 122 129 131 130 128 126 126 125 123 120 117 113 107 102 98 95 95 101 106
278 271 264 262 266 269 268 270 277 285 290 291 294 301 303 302 300 296 291 286 280 274 280 290 294 295 331 14 347 329 331 335 329 331 351 358 353 353 35 84 94 84 71 68 66 65 59 45 31 23 12 0 9 30 35 35 45 62 76 85 87 88 90 91 91 90 91 98 110 122 128 130 130 130 131 131 128 124 120 117 115 111 103 94 90 94 101
263 258 249 246 253 262 270 274 275 274 275 280 285 288 289 290 290 289 286 283 281 276 275 281 285 298 40 38 336 328 339 342 344 2 15 16 14 19 44 74 72 60 53 48 47 56 61 52 38 26 16 10 14 43 53 61 69 75 80 86 88 90 93 95 94 93 94 97 102 110 117 122 125 126 124 122 121 121 120 119 118 114 105 94 86 85 87
252 245 243 244 248 250 252 256 261 262 260 262 269 275 276 275 274 278 281 282 285 294 292 279 273 278 68 47 31 41 23 353 5 26 34 37 38 37 41 62 71 63 52 42 42 48 52 50 43 30 20 21 30 54 74 82 84 84 85 85 83 86 94 100 102 101 98 97 99 102 105 109 115 119 117 114 114 117 119 118 117 113 104 89 79 76 74
260 243 237 238 240 238 239 243 248 254 255 250 251 258 264 266 268 272 282 287 283 282 289 283 265 164 94 66 67 74 68 46 42 44 45 50 53 51 44 43 57 73 69 56 51 51 52 52 46 36 27 29 37 50 81 95 87 81 81 82 81 83 92 99 102 101 99 99 102 100 97 98 106 114 117 116 114 115 116 117 117 115 107 93 80 77 77
272 242 233 234 233 232 236 239 238 242 243 238 236 240 245 252 259 263 268 276 273 265 274 279 263 138 104 80 67 63 69 77 70 60 56 55 56 56 54 46 39 51 70 69 61 55 55 54 46 38 34 35 40 45 60 98 97 87 83 84 85 87 91 93 90 85 85 90 95 94 91 91 96 104 112 118 120 119 120 122 122 120 118 112 104 98 89
322 248 225 221 221 224 230 234 235 237 235 231 230 232 231 233 243 252 262 270 268 264 266 261 190 121 106 95 75 53 53 77 78 69 65 62 57 57 58 52 35 26 46 63 64 59 57 55 51 44 39 37 43 50 58 77 94 92 84 79 78 77 78 80 79 76 75 75 75 75 75 74 74 76 82 94 107 113 119 128 135 139 140 133 119 105 88
356 337 261 213 213 221 228 230 231 231 229 226 227 228 225 221 225 236 248 257 262 264 256 212 153 120 104 97 81 58 46 76 79 66 63 64 59 55 54 51 37 23 32 49 55 55 55 55 54 51 46 44 50 57 60 66 78 82 80 76 74 71 70 70 71 70 70 68 67 68 67 64 62 61 62 64 67 69 70 80 98 120 135 134 121 105 88
8 9 16 25 16 335 298 267 246 230 223 221 223 226 225 224 228 232 235 243 251 250 228 184 141 107 93 89 80 62 57 84 85 72 65 65 64 59 56 50 37 21 28 39 42 44 52 56 57 57 55 54 57 60 62 67 74 78 79 79 77 73 71 71 70 69 68 68 68 67 65 61 58 58 57 57 56 56 55 55 56 62 74 88 93 88 81
13 16 22 27 28 25 15 356 339 314 262 240 236 238 231 220 218 227 236 243 243 231 201 159 123 99 89 88 87 79 73 80 83 78 70 68 67 63 60 53 37 20 22 31 31 33 46 58 62 63 61 59 57 59 63 69 72 74 76 78 77 75 73 72 70 68 68 67 67 66 64 61 58 55 53 52 51 50 50 51 51 52 53 54 52 49 46
15 17 20 23 28 30 26 21 21 17 8 348 291 264 252 240 230 225 226 238 234 193 148 123 109 101 93 87 88 89 84 81 83 80 73 69 66 61 58 53 42 28 21 20 20 27 41 57 64 66 63 58 56 58 62 67 71 71 72 73 74 73 72 71 70 69 68 66 65 63 62 60 56 53 51 50 48 47 46 46 46 46 44 43 41 37 34
17 19 22 25 29 31 29 29 31 31 32 34 33 42 55 28 279 224 177 136 123 131 125 117 111 108 101 94 91 90 86 83 83 80 73 70 68 63 57 50 42 34 24 20 26 34 43 54 61 64 62 59 58 59 63 67 70 70 70 71 71 70 68 68 68 69 68 67 65 63 60 58 56 53 51 49 48 46 45 43 42 41 38 36 34 31 27
21 21 21 24 28 30 31 33 33 31 32 33 32 42 62 61 47 47 88 119 140 141 129 120 112 104 100 96 91 85 82 81 82 79 75 72 71 69 63 53 46 43 41 41 44 46 48 53 58 60 60 60 61 62 64 69 70 68 67 68 69 68 67 65 65 65 66 67 66 63 60 58 56 54 53 52 50 48 46 43 42 40 36 33 31 28 24
25 24 22 24 28 30 30 32 33 33 35 38 38 36 48 63 62 50 44 62 96 107 110 112 108 99 94 95 90 80 75 75 75 77 77 74 71 71 65 52 45 46 50 52 53 52 52 55 58 58 58 60 64 64 65 69 70 68 65 65 67 68 67 66 64 63 63 64 64 63 61 59 58 57 56 55 53 51 49 46 43 41 38 35 31 28 25
27 28 28 28 30 32 32 31 33 35 36 38 40 41 45 57 65 59 47 50 62 69 77 89 92 88 87 89 86 80 75 73 71 71 72 70 66 67 64 48 42 45 52 56 57 57 56 57 58 58 59 61 64 66 68 69 69 68 66 66 67 68 68 68 68 67 66 66 66 65 63 62 62 61 59 58 57 54 52 50 47 45 42 40 36 33 31
30 31 33 33 32 34 36 35 34 37 38 37 38 42 47 54 61 62 56 54 58 61 66 74 78 79 80 82 82 78 75 74 71 70 69 66 62 63 64 52 45 47 53 57 58 58 58 58 57 58 60 61 63 67 70 70 69 68 68 68 68 69 69 70 72 74 74 73 72 70 69 68 67 65 62 60 59 57 55 54 52 49 46 44 43 41 38
35 34 36 39 38 37 39 40 39 38 38 38 38 41 45 51 57 60 58 55 54 55 58 63 67 68 67 70 73 73 72 71 72 73 71 67 63 62 62 59 52 50 54 57 58 57 58 58 58 58 60 62 63 67 70 69 69 69 69 69 69 69 70 71 74 79 82 82 80 78 76 74 74 73 70 67 66 64 62 59 56 52 49 48 49 48 45
40 40 40 45 47 44 42 45 46 44 42 41 42 43 45 48 52 56 57 54 52 53 56 60 61 60 59 58 59 61 61 63 66 70 72 70 63 58 57 58 56 53 54 58 58 58 58 59 60 60 62 63 64 67 68 68 68 69 69 69 69 70 69 69 71 75 81 85 87 86 84 82 80 79 78 77 75 73 71 68 65 62 60 57 55 51 48
42 43 45 51 55 54 49 47 50 52 53 50 47 46 47 49 52 56 58 56 51 51 54 57 57 56 55 55 56 56 57 58 58 61 65 69 64 57 55 56 56 54 55 57 58 58 58 60 62 63 64 65 65 66 67 67 67 69 69 69 69 69 69 69 70 71 74 78 82 84 86 86 85 83 82 82 80 79 76 74 70 65 62 60 57 54 51
50 46 47 52 58 62 62 60 60 62 63 61 55 49 48 50 53 58 62 63 60 57 58 60 60 58 56 55 55 55 56 56 56 56 60 66 70 67 62 60 57 56 56 57 56 56 58 61 63 63 64 64 65 65 66 66 66 67 68 68 69 69 69 70 71 71 71 73 76 80 83 85 84 83 83 85 86 83 79 75 71 67 63 61 59 55 52
64 54 48 51 56 61 65 69 69 67 65 65 63 58 57 57 57 59 62 65 65 64 63 64 65 65 63 60 58 56 54 53 51 52 56 62 68 68 65 63 62 61 60 59 57 56 58 61 63 63 64 65 66 66 65 65 65 66 66 67 68 70 72 72 73 75 77 78 80 83 86 88 88 88 87 86 87 86 81 75 70 65 61 57 54 52 50
68 67 58 55 56 55 55 60 64 62 63 68 73 74 74 73 71 69 67 67 67 67 65 64 64 65 65 65 64 63 63 61 55 49 50 55 61 64 64 63 63 64 64 63 61 60 60 61 62 63 64 65 66 66 65 64 63 62 62 63 64 66 70 74 76 78 79 79 77 77 78 79 82 84 85 84 85 86 84 79 73 67 62 56 51 47 45
56 67 64 59 58 53 49 52 56 56 61 70 76 79 84 85 81 78 77 75 73 72 70 68 66 64 63 62 63 66 68 69 67 61 57 58 61 63 65 65 63 63 65 64 63 62 62 63 63 64 64 64 65 65 65 65 63 60 59 59 60 61 65 69 71 71 70 68 66 67 69 70 71 75 79 81 81 82 81 78 73 69 65 61 56 50 46
45 54 51 52 58 55 48 48 55 59 66 73 73 69 71 74 75 79 82 82 79 77 77 75 73 70 66 63 62 63 65 67 68 65 64 64 65 65 66 66 65 64 65 64 63 63 64 64 65 66 66 65 64 64 65 65 64 61 58 58 59 60 63 66 68 68 67 64 62 62 64 64 63 65 71 76 78 76 73 69 66 65 66 64 58 53 50
40 43 40 43 53 54 47 44 46 48 57 73 79 72 61 53 55 73 88 89 84 79 75 72 70 70 67 66 66 65 64 65 66 66 65 67 69 70 69 68 67 66 66 64 62 62 64 65 66 67 68 67 66 66 67 67 66 64 61 60 59 59 60 63 65 66 67 64 61 60 59 58 57 57 59 64 72 74 67 58 56 61 67 66 59 52 48
46 42 38 38 45 47 43 41 42 42 43 49 63 73 72 61 52 57 73 86 89 89 86 79 72 68 65 64 66 67 65 64 66 67 67 68 72 76 78 76 72 68 68 67 64 63 64 65 65 66 66 66 67 69 70 70 68 66 63 62 60 59 59 61 63 65 66 65 62 59 58 56 55 54 53 55 61 65 62 56 57 63 68 67 61 54 48
Height
653 642 635 628 625 625 626 632 636 635 635 639 646 652 650 649 666 676 660 653 663 657 642 639 635 631 635 637 633 632 632 630 631 635 638 642 646 649 651 654 657 660 664 666 668 671 673 676 681 684 687 690 692 695 698 701 705 709 712 717 721 724 727 729 732 735 738 741 743 746 749 751 753 755 757 760 762 764 767 768 770 772 774 776 777 778 780
653 642 635 630 629 627 627 630 630 631 633 635 640 644 641 642 651 655 652 655 656 647 638 635 631 628 630 631 629 631 633 633 635 639 643 645 648 650 653 655 657 659 662 664 667 670 672 675 679 681 684 686 689 691 694 697 701 704 708 712 715 718 721 724 727 731 734 737 739 742 745 746 748 750 753 756 758 760 762 764 766 768 770 772 773 774 776
660 646 639 637 635 632 633 633 629 629 632 632 637 640 638 642 647 646 649 657 654 640 631 632 631 629 630 634 635 636 637 636 637 641 645 648 650 652 654 656 658 659 661 664 666 669 671 673 675 678 680 683 686 688 691 694 697 701 704 707 710 713 716 720 723 726 729 733 735 738 740 742 744 746 749 751 753 756 758 760 762 764 766 767 768 770 771
671 652 650 649 638 633 638 639 634 633 635 634 634 634 635 639 645 648 653 659 654 638 630 633 636 634 637 642 641 641 641 640 640 643 646 649 651 653 654 657 658 660 661 663 665 666 668 670 673 675 677 680 683 685 688 691 694 698 701 703 705 709 712 715 719 721 725 728 730 733 735 737 739 742 745 747 749 752 753 755 758 759 761 762 763 765 767
682 660 658 653 647 655 658 643 631 632 635 633 628 629 631 630 635 647 655 651 642 632 631 638 642 642 644 645 644 644 644 643 645 646 647 650 652 652 654 656 657 659 659 660 662 663 665 667 670 672 674 677 680 682 685 689 691 695 697 699 702 704 707 711 713 716 720 723 725 728 730 733 736 738 741 743 745 747 749 751 753 754 756 757 759 761 762
695 672 660 657 667 680 662 629 618 624 630 632 628 628 628 624 625 632 637 635 631 629 632 639 643 644 644 642 640 641 641 644 647 648 648 651 652 652 653 654 655 656 657 658 660 661 664 666 669 671 673 675 677 680 683 686 688 691 693 695 698 700 703 706 708 712 716 718 721 724 726 729 732 734 737 739 741 743 745 747 749 750 751 753 755 757 758
699 681 674 684 691 673 637 616 615 619 623 625 625 626 628 630 631 626 625 631 634 633 633 635 638 640 639 639 640 640 641 645 649 652 653 652 652 654 655 655 656 656 657 658 660 662 664 666 668 670 672 674 676 678 680 683 685 687 689 692 694 696 698 701 704 707 710 713 716 719 722 725 728 730 732 734 737 739 741 742 744 745 747 749 750 752 753
698 691 690 692 679 645 621 620 621 622 625 624 630 647 655 652 650 640 630 630 631 634 636 634 635 636 637 642 647 646 646 648 650 655 657 655 656 659 659 660 659 658 659 660 662 663 664 666 668 669 670 672 674 676 678 680 682 684 686 688 689 691 693 696 699 701 704 708 712 715 719 722 724 726 728 730 732 735 737 739 740 742 743 744 746 747 749
702 705 695 675 658 645 643 650 647 644 643 631 633 659 670 659 654 650 640 631 627 633 639 637 634 635 642 656 662 655 651 653 653 655 657 657 659 661 660 661 661 660 661 662 662 663 664 666 668 669 670 671 672 674 676 678 679 681 683 684 685 687 689 691 694 697 700 704 707 711 714 717 719 721 723 726 728 731 733 735 737 738 739 740 742 743 745
703 709 701 680 674 675 677 677 662 647 643 630 625 653 675 668 660 659 654 646 636 633 637 638 635 640 658 678 678 664 658 657 655 657 658 658 660 662 662 663 663 664 664 663 663 664 664 666 668 669 671 672 672 673 674 675 677 679 680 680 681 683 685 687 691 694 697 700 703 706 709 711 714 717 719 722 725 727 730 731 732 734 736 737 739 740 741
706 709 709 696 690 691 688 678 659 645 643 628 622 659 693 686 669 665 664 661 652 642 640 641 642 656 679 692 683 669 663 661 659 661 663 661 662 662 663 665 666 667 667 666 665 666 666 667 668 669 671 672 672 673 672 673 675 675 676 677 679 681 682 685 688 691 693 696 699 702 704 707 710 713 716 719 722 725 727 728 730 732 734 735 736 737 738
707 706 708 699 695 697 689 674 661 651 639 624 640 692 715 693 675 672 669 668 666 656 651 651 655 670 686 689 680 670 665 664 663 664 666 666 666 665 665 666 667 667 667 667 667 668 669 669 669 669 670 671 672 672 672 672 672 672 672 674 677 679 681 682 685 687 690 693 696 698 701 704 707 710 713 716 719 721 724 726 728 730 732 733 733 734 735
708 708 708 702 699 698 688 678 666 648 635 645 682 717 715 691 681 677 671 672 673 667 663 664 669 676 678 676 674 670 667 669 670 669 669 669 668 669 669 669 669 669 669 669 670 671 672 672 671 671 671 671 672 672 671 671 671 671 671 672 674 677 678 680 682 684 686 689 692 695 698 701 704 707 710 712 715 718 720 723 725 727 729 730 730 731 733
711 709 708 707 705 696 685 681 668 649 657 691 712 709 698 689 685 679 674 676 677 674 672 673 675 677 674 671 673 673 673 675 675 674 674 673 672 673 673 673 674 674 673 673 673 674 674 674 674 673 673 672 672 671 671 670 670 670 669 670 671 673 675 677 679 681 684 687 690 693 696 699 702 704 707 710 712 715 718 720 722 724 725 726 728 729 730
709 712 714 718 719 703 686 685 680 673 688 711 709 696 692 690 684 681 680 678 678 679 680 678 678 677 675 674 675 676 677 678 678 678 678 677 676 677 677 678 678 678 677 677 676 677 677 677 676 675 674 673 672 671 671 670 669 668 667 667 668 669 671 673 675 678 681 684 687 690 693 696 699 701 704 707 710 712 714 717 718 720 722 723 725 726 727
719 729 729 724 719 706 693 695 701 699 699 701 698 696 696 691 687 687 686 681 680 682 683 683 682 681 680 680 680 681 682 682 682 683 682 681 681 681 681 682 682 681 681 680 679 679 679 678 678 678 676 675 673 672 672 670 669 668 666 666 666 667 668 670 672 675 678 681 684 687 690 693 696 699 702 704 707 709 711 713 715 717 718 720 722 723 725
719 724 721 713 709 705 699 701 705 703 697 695 697 699 699 696 693 692 690 688 685 683 683 684 684 683 684 684 685 686 687 687 687 687 686 686 686 685 685 686 685 684 683 682 681 681 680 680 680 679 678 677 675 673 672 671 669 668 667 666 666 666 668 669 671 673 676 679 682 684 687 690 693 696 699 702 704 707 708 710 712 713 715 717 719 720 722
714 711 708 706 707 706 704 703 704 703 700 698 698 701 703 702 698 695 694 694 690 688 688 686 685 685 686 686 686 688 688 688 689 688 688 688 688 688 688 688 687 686 685 683 683 682 681 681 681 680 679 678 676 675 673 671 670 669 668 667 666 667 668 669 671 673 675 678 681 683 686 689 691 694 697 699 702 704 705 707 709 711 713 715 716 718 720
720 717 711 707 707 707 706 706 704 702 702 701 700 702 704 703 700 698 696 695 693 692 691 689 689 688 687 688 690 690 690 690 690 690 690 691 691 691 690 689 688 687 686 685 684 683 683 682 681 681 680 679 677 676 674 672 670 669 668 668 667 667 668 670 671 673 675 677 680 683 685 688 690 693 695 697 699 701 703 705 706 708 711 712 714 716 717
723 720 713 708 706 703 703 705 706 705 706 704 701 701 701 702 701 699 697 696 696 695 692 691 690 689 689 691 692 691 691 692 691 691 692 692 692 692 691 690 689 688 687 686 685 684 684 683 682 682 681 679 678 676 674 673 671 670 669 669 668 668 669 670 671 673 675 677 680 682 685 687 689 691 693 695 697 698 700 702 704 706 709 710 712 713 714
721 718 714 714 713 708 705 707 709 708 707 706 704 702 701 701 701 700 698 697 697 696 695 692 691 692 692 692 692 693 693 693 693 693 693 693 693 693 691 690 689 688 687 686 685 685 685 684 683 682 681 680 679 677 675 674 672 670 670 669 669 670 670 671 672 673 675 678 679 681 684 686 688 690 692 693 695 697 699 701 703 705 707 709 711 712 713
730 724 723 726 728 725 718 714 713 710 708 708 708 706 703 702 702 703 702 701 700 699 698 695 694 696 696 694 694 695 694 693 693 693 693 693 693 693 692 691 689 688 687 687 686 686 685 684 684 683 682 680 679 678 676 674 672 671 670 669 670 670 671 671 672 673 675 677 679 680 683 685 687 690 692 694 695 697 698 700 702 704 706 708 710 711 712
736 728 726 728 731 731 725 718 714 711 709 709 710 709 707 706 705 706 707 706 705 704 702 700 699 699 699 697 696 696 695 694 693 693 693 694 693 692 692 690 689 688 688 687 687 686 686 685 685 684 682 681 680 679 677 675 674 672 671 670 670 671 671 672 673 673 675 677 678 680 682 684 686 689 692 695 697 698 700 701 702 703 705 708 710 711 712
732 727 725 725 726 728 727 720 714 710 708 709 709 709 708 707 707 708 709 709 708 707 705 703 701 700 700 699 698 698 697 696 694 693 694 693 693 693 692 690 689 689 688 687 687 687 686 686 685 684 683 682 681 680 679 677 675 674 673 672 671 671 672 672 673 674 675 676 678 680 683 684 686 688 691 695 699 702 703 703 704 706 707 709 711 712 713
732 727 724 723 722 723 723 720 714 710 708 708 707 707 707 707 708 709 709 709 708 707 706 705 703 701 701 700 699 699 699 697 696 695 694 693 693 692 692 691 691 690 689 688 688 687 687 686 685 685 684 682 681 681 680 678 676 675 674 673 673 673 673 673 673 674 676 677 678 681 683 686 687 689 690 694 698 702 705 706 707 708 710 712 713 714 715
732 727 724 722 718 716 718 718 714 711 709 707 706 706 706 706 707 709 709 710 709 707 707 706 704 703 702 701 700 700 700 699 698 696 694 693 693 692 692 692 691 691 690 689 688 688 688 687 686 685 684 683 682 682 680 679 678 677 676 675 675 675 675 674 675 676 677 678 680 682 684 687 689 691 693 694 697 701 704 706 708 710 712 714 715 716 716
730 728 728 724 716 712 713 713 710 708 708 707 706 706 705 705 706 707 708 709 709 708 707 706 704 703 702 701 700 700 699 699 698 696 695 694 693 692 692 692 692 692 691 690 689 689 689 688 687 686 685 684 684 682 681 680 679 678 678 677 677 677 677 677 677 678 680 681 682 683 686 688 690 693 695 697 699 701 704 706 708 711 714 716 717 718 718
726 725 726 723 715 710 711 710 707 706 706 705 705 705 705 705 705 705 707 708 707 707 707 706 704 703 702 701 701 700 699 698 697 696 695 695 694 693 693 692 692 693 692 691 691 690 689 689 688 687 686 685 685 684 682 681 680 679 679 679 679 679 680 680 680 681 682 684 685 686 687 690 692 695 697 698 700 703 705 707 709 712 714 716 718 719 719
720 718 718 715 710 708 709 708 706 704 704 703 703 703 703 704 704 705 706 706 706 706 706 705 704 702 701 701 701 700 700 699 698 697 697 696 696 695 694 694 694 693 693 692 691 691 690 690 689 687 687 686 685 685 684 682 681 681 681 681 681 682 683 683 684 684 685 686 687 689 690 692 694 697 699 700 702 703 706 708 710 712 715 717 718 718 719
710 710 709 707 706 708 709 707 705 703 703 702 701 700 701 702 702 702 703 704 704 705 705 704 703 702 701 701 701 701 701 701 700 699 698 698 697 697 696 696 695 694 694 694 693 692 692 691 689 689 688 687 686 686 685 684 683 683 683 683 683 684 685 686 687 688 688 689 690 691 692 694 695 697 699 701 703 704 706 708 710 713 715 717 718 718 719
701 702 702 702 703 704 704 703 703 702 701 700 700 700 699 699 700 700 701 701 702 702 703 702 701 700 700 700 700 700 701 701 701 701 700 700 699 699 698 698 697 696 696 695 694 693 692 691 691 691 690 688 687 687 687 686 686 686 685 685 685 686 687 688 689 690 691 691 692 693 694 695 697 699 701 702 703 705 707 709 711 713 715 717 718 719 720
694 695 697 699 699 700 700 700 700 699 698 698 698 698 697 697 698 698 699 700 700 700 700 700 699 698 698 699 699 700 701 701 702 702 702 702 701 701 701 701 701 699 697 695 695 694 693 692 692 692 691 690 689 688 688 688 688 688 688 688 689 690 690 691 692 693 693 693 694 695 696 698 699 701 702 704 705 707 709 710 712 714 716 717 718 719 720
692 691 693 695 696 696 697 696 695 695 695 694 694 694 694 695 696 696 697 698 698 698 698 697 697 697 696 697 698 700 701 702 703 703 704 704 704 703 703 703 704 703 700 697 695 695 694 694 694 694 693 692 691 689 689 689 689 689 690 690 691 692 693 693 694 695 695 696 697 698 699 700 701 703 704 706 707 709 710 711 713 714 715 716 718 719 720
695 690 689 689 690 691 692 691 691 690 690 690 691 691 691 693 694 695 696 697 697 697 697 696 696 696 696 697 699 701 703 704 704 705 706 706 706 706 706 706 707 707 704 699 696 696 696 696 696 695 694 693 693 692 692 692 691 691 692 693 694 695 696 696 697 697 699 700 701 701 702 704 705 706 707 708 710 711 711 712 713 714 715 716 718 719 720
698 693 690 688 688 688 688 687 686 685 686 687 688 688 689 691 693 694 695 695 696 696 696 696 695 695 696 698 700 703 706 706 706 707 709 709 708 708 707 707 709 709 705 701 699 699 698 698 697 696 696 695 695 696 696 695 695 694 695 696 697 698 699 700 701 702 703 704 705 706 707 708 709 710 711 712 713 714 714 715 716 716 717 719 720 721 723
705 701 698 695 693 691 690 688 686 684 684 685 686 687 688 690 691 692 694 694 694 695 695 696 696 696 698 700 704 708 710 709 708 710 712 712 710 709 708 708 710 711 708 704 703 703 701 699 699 698 698 698 698 699 698 698 698 698 698 699 700 702 703 703 704 706 707 708 708 710 711 712 713 714 715 715 716 717 718 719 720 721 721 723 724 725 725
714 710 707 704 700 697 695 693 690 688 686 685 686 687 688 688 688 690 692 693 693 694 694 696 697 698 701 704 708 711 712 710 710 711 713 713 711 711 710 711 713 714 712 709 708 707 704 702 700 700 700 700 701 702 701 700 700 700 701 702 704 705 706 707 708 709 710 711 712 713 714 715 717 718 719 720 720 721 722 724 724 725 725 726 726 726 726
723 718 715 711 707 704 702 698 695 693 690 688 687 687 687 688 688 689 689 691 693 694 695 698 700 701 703 707 711 713 713 712 711 712 714 714 713 712 714 716 717 718 717 715 713 711 708 705 702 701 702 704 705 705 704 703 702 703 705 706 707 708 709 710 711 713 714 715 716 717 718 719 721 722 723 724 725 725 726 727 727 728 728 728 728 728 727
729 725 721 717 714 711 707 704 701 699 696 694 692 690 689 690 690 689 689 692 694 695 696 699 701 703 705 709 713 715 715 714 713 714 716 716 716 716 719 721 721 721 720 718 716 714 712 709 705 705 706 708 708 709 709 708 706 707 709 710 710 711 713 714 715 716 717 718 719 720 722 724 725 726 727 728 728 729 730 730 730 731 731 730 730 730 730
735 732 728 725 721 718 715 712 710 707 704 702 700 698 696 693 692 693 695 696 697 698 698 699 702 705 708 710 713 716 717 716 716 717 718 719 720 721 722 723 724 723 721 719 717 716 715 712 710 711 712 712 712 712 712 712 711 712 713 714 714 715 717 718 719 720 721 722 723 725 727 728 729 729 730 731 732 732 733 733 733 733 733 733 733 733 732
740 738 735 732 729 726 724 721 718 715 712 710 708 707 704 699 697 700 704 704 703 704 705 704 705 708 711 712 714 717 719 719 720 722 723 723 724 724 724 726 727 727 724 722 721 719 718 716 716 716 717 716 716 716 715 715 716 717 718 719 719 720 721 722 723 725 726 727 728 730 731 732 733 733 734 735 736 736 736 736 736 737 737 737 737 736 736
745 743 740 738 736 733 731 728 725 722 720 718 716 714 712 708 706 708 712 712 712 713 714 712 711 714 716 716 717 719 721 723 725 727 727 728 729 727 727 729 731 730 727 725 724 722 721 721 721 722 721 721 720 720 719 719 721 722 723 723 724 725 726 727 728 730 731 732 733 734 735 736 736 737 738 739 739 740 740 740 740 740 741 741 740 740 739
750 748 745 744 742 740 737 735 732 730 728 727 724 723 721 718 716 717 719 720 721 722 721 719 718 720 722 722 722 724 727 729 730 731 731 732 732 731 731 732 733 732 730 728 727 726 726 726 727 727 727 726 725 724 723 724 725 727 727 728 729 730 731 732 733 734 735 736 737 738 739 740 740 741 741 742 742 743 743 743 744 744 743 743 743 742 742
754 752 750 749 747 745 743 741 739 737 736 735 734 732 729 727 726 725 726 728 730 730 728 725 725 726 727 728 729 731 733 735 736 736 736 735 735 735 735 735 735 734 733 732 731 731 732 732 732 732 732 730 730 729 729 730 731 732 733 733 734 735 736 736 737 738 739 739 740 741 742 742 743 743 743 744 744 745 745 746 746 746 745 745 744 743 743
756 755 754 753 751 750 748 747 745 744 743 742 741 739 737 736 735 733 733 734 736 736 733 731 730 731 733 736 737 739 740 740 741 741 739 737 737 739 739 738 738 737 736 735 735 736 737 738 738 737 736 735 735 735 735 736 737 737 738 739 739 740 740 740 741 741 741 742 742 743 744 744 745 745 745 746 746 747 747 748 748 747 747 746 746 745 744
758 757 757 756 755 754 753 752 751 750 749 747 746 745 745 743 742 741 741 742 743 742 740 738 738 740 742 744 745 746 746 745 745 744 743 741 742 743 743 742 741 740 740 739 740 741 742 742 742 741 740 740 740 740 741 742 742 743 743 743 744 744 744 744 744 744 744 744 744 745 746 746 747 747 747 748 748 749 749 749 749 749 748 748 748 747 747
760 759 759 758 758 757 757 756 755 753 752 751 751 752 751 750 749 748 747 748 748 747 746 745 745 747 749 750 751 751 751 749 748 748 747 746 746 746 745 744 744 744 743 744 745 746 746 746 746 745 745 744 744 745 746 746 747 747 747 747 748 748 748 748 747 747 747 747 747 748 748 748 748 749 749 749 750 750 750 750 750 750 750 750 749 749 749
762 761 761 760 760 759 759 759 758 757 756 755 755 756 756 755 753 753 752 751 751 751 750 750 751 751 753 754 755 755 754 753 752 752 751 750 749 748 747 747 747 747 747 748 749 750 751 750 749 749 749 749 749 749 750 750 750 751 751 751 751 751 751 751 751 751 750 750 750 750 750 751 751 751 751 751 751 751 751 751 751 751 751 751 751 751 751
763 763 763 762 761 761 761 760 760 759 759 759 759 758 758 757 756 756 756 755 755 755 754 755 755 755 756 757 757 757 757 756 755 755 755 754 753 752 751 752 752 751 751 752 753 753 754 753 753 753 753 753 753 753 753 753 753 754 754 754 754 754 754 754 754 753 753 753 753 753 753 753 753 754 754 753 753 753 753 753 753 753 753 753 753 752 752
765 764 764 763 763 762 762 762 761 761 761 761 761 761 760 759 759 758 758 758 758 758 758 758 759 759 760 760 760 760 759 759 758 758 758 757 756 756 755 755 755 755 755 755 756 756 756 756 756 756 756 756 756 757 757 757 757 757 757 757 757 757 757 757 756 756 755 755 755 755 755 755 755 755 755 755 755 755 756 755 755 755 754 754 754 754 754
767 766 766 765 765 764 764 764 763 763 762 762 762 762 762 761 761 760 760 760 761 761 761 761 762 762 762 762 762 762 762 761 761 761 760 759 759 759 759 758 758 759 758 758 758 758 759 759 759 759 760 760 760 760 760 760 760 760 760 760 760 760 760 759 759 758 758 757 757 757 757 757 757 757 757 757 757 757 757 757 756 756 756 755 755 755 755
770 769 768 768 767 767 766 766 765 765 764 764 763 763 763 763 763 762 762 762 762 762 763 763 764 764 764 764 764 764 764 763 763 762 762 762 762 762 762 761 761 761 761 761 761 761 761 761 762 762 762 762 762 762 763 763 763 763 763 763 763 763 762 762 761 761 760 760 760 760 759 759 759 759 759 759 759 759 759 758 758 758 758 758 757 757 758